Regional Weather Roundup
Issued by NWS

Home | Current Version | Previous Version | Text Only | Print | Product List | Glossary Off
Versions: 1 2 3 4 5 6 7 8 9 10 11 12 13 14 15 16 17 18 19 20 21 22 23 24 25 26 27 28 29 30 31 32 33 34 35 36 37 38 39 40 41 42 43 44 45 46 47 48 49 50

000
ASUS43 KMKX 211821
RWRWI

WISCONSIN REGIONAL WEATHER ROUNDUP
NATIONAL WEATHER SERVICE MILWAUKEE/SULLIVAN WI
100 PM CDT FRI JUL 21 2017

NOTE: "FAIR" INDICATES FEW OR NO CLOUDS BELOW 12,000 FEET WITH NO
SIGNIFICANT WEATHER AND/OR OBSTRUCTIONS TO VISIBILITY.

WIZ001-002-006>008-014>016-023>028-211900-
NORTHWEST WISCONSIN

CITY           SKY/WX    TMP DP  RH WIND       PRES   REMARKS
SUPERIOR ARPT  NOT AVBL
ASHLAND        CLOUDY    72  68  87 N6        29.95F
6HR MIN TEMP:  63; 6HR MAX TEMP:  75;

HAYWARD        PTSUNNY   80  65  59 S10       29.95F HX  82
6HR MIN TEMP:  61; 6HR MAX TEMP:  80;

SIREN          CLOUDY    81  67  62 SE10      29.91F HX  84
6HR MIN TEMP:  65; 6HR MAX TEMP:  81;

CUMBERLAND     CLOUDY    77  64  65 S10       29.93F
RICE LAKE      CLOUDY    78  65  63 S15       29.94F HX  80
6HR MIN TEMP:  62; 6HR MAX TEMP:  80;

CHETEK         CLOUDY    80  69  70 SE10G18   29.93F HX  82
6HR MIN TEMP:  64; 6HR MAX TEMP:  81;

LADYSMITH      CLOUDY    81  66  60 S12       29.98F HX  83
6HR MIN TEMP:  63; 6HR MAX TEMP:  82;

EAU CLAIRE     LGT RAIN  73  70  90 S12       29.92F
6HR MIN TEMP:  64; 6HR MAX TEMP:  76; 6HR PCP:  0.01;

MENOMONIE      DRIZZLE   73  71  93 E7        29.92F
6HR MIN TEMP:  65; 6HR MAX TEMP:  74;

NEW RICHMOND   DRIZZLE   73  68  86 SE8       29.93R
6HR MIN TEMP:  66; 6HR MAX TEMP:  77;

OSCEOLA        CLOUDY    75  67  74 SE8       29.94R
6HR MIN TEMP:  67; 6HR MAX TEMP:  78;

$$

WIZ003>005-009-010-017-018-211900-
NORTH CENTRAL WISCONSIN

CITY           SKY/WX    TMP DP  RH WIND       PRES   REMARKS
MANITOWISH WTR CLOUDY    80  64  58 S9        29.99F HX  81
6HR MIN TEMP:  61; 6HR MAX TEMP:  80;

ARBOR VITAE    PTSUNNY   81  66  60 S8        29.99F HX  83
6HR MIN TEMP:  63; 6HR MAX TEMP:  81;

WOODRUFF       PTSUNNY   81  66  60 S8        29.99F HX  83
6HR MIN TEMP:  63; 6HR MAX TEMP:  81;

RHINELANDER    PTSUNNY   80  64  58 SW9       30.00F HX  82
6HR MIN TEMP:  64; 6HR MAX TEMP:  81;

EAGLE RIVER    CLOUDY    79  61  53 SW7       30.00S HX  80
6HR MIN TEMP:  61; 6HR MAX TEMP:  81;

LAND O LAKES   CLOUDY    83  62  49 SW7       30.01F HX  83
6HR MIN TEMP:  58; 6HR MAX TEMP:  83;

PHILLIPS       PTSUNNY   80  66  63 S13       29.97F HX  82
6HR MIN TEMP:  62; 6HR MAX TEMP:  80;

TOMAHAWK         N/A     80  65  60 S5        30.00S HX  82
6HR MIN TEMP:  61; 6HR MAX TEMP:  80;

MEDFORD        CLOUDY    78  64  61 S12G17    29.99F HX  80
6HR MIN TEMP:  63; 6HR MAX TEMP:  78;

MERRILL        CLOUDY    81  66  59 SW13      29.99F HX  83
6HR MIN TEMP:  60; 6HR MAX TEMP:  81;

$$

WIZ029-030-035-036-043>047-211900-
CENTRAL WISCONSIN

CITY           SKY/WX    TMP DP  RH WIND       PRES   REMARKS
WAUSAU         PTSUNNY   80  65  59 S9        29.98S HX  82
6HR MIN TEMP:  65; 6HR MAX TEMP:  81;

MOSINEE        PTSUNNY   79  66  65 S9        30.00F HX  81
MARSHFIELD     CLOUDY    77  66  68 S13       29.99F
6HR MIN TEMP:  64; 6HR MAX TEMP:  78;

STEVENS POINT  CLOUDY    76  65  68 S7        30.00S
6HR MIN TEMP:  61; 6HR MAX TEMP:  79;

WAUPACA        CLOUDY    80  69  70 CALM      29.99R HX  83
6HR MIN TEMP:  66; 6HR MAX TEMP:  83;

WAUTOMA        CLOUDY    77  71  82 CALM      29.98F
6HR MIN TEMP:  65; 6HR MAX TEMP:  79;

WISC RAPIDS    CLOUDY    77  69  76 SW7       30.01R
6HR MIN TEMP:  65; 6HR MAX TEMP:  79;

CAMP DOUGLAS   LGT RAIN  73  72  94 SE3       29.98F
                                      6HR PCP:  0.03;

$$

WIZ011>013-019>022-031-037>040-048>050-211900-
NORTHEAST WISCONSIN

CITY           SKY/WX    TMP DP  RH WIND       PRES   REMARKS
ANTIGO         PTSUNNY   80  64  58 SW9       30.01S HX  81
6HR MIN TEMP:  62; 6HR MAX TEMP:  80;

SHAWANO        CLOUDY    83  68  59 CALM      29.96F HX  86
6HR MIN TEMP:  66; 6HR MAX TEMP:  85;

OCONTO         CLOUDY    82  67  58 SW3       29.95F HX  85
6HR MIN TEMP:  64; 6HR MAX TEMP:  84;

STURGEON BAY     N/A     82  71  69 CALM      29.97F HX  86
6HR MIN TEMP:  67; 6HR MAX TEMP:  84;

GREEN BAY      CLOUDY    82  71  69 MISG      29.97S HX  86
6HR MIN TEMP:  66; 6HR MAX TEMP:  83;

MANITOWOC      CLOUDY    80  66  62 SE7       29.98S HX  82
6HR MIN TEMP:  69; 6HR MAX TEMP:  85;

APPLETON       CLOUDY    81  63  54 S7        29.97F HX  82
CLINTONVILLE   CLOUDY    81  64  57 SW8       29.98R HX  82
OSHKOSH        CLOUDY    80  70  71 CALM      29.97F HX  83
6HR MIN TEMP:  68; 6HR MAX TEMP:  83;

$$

WIZ032>034-041-042-053>061-211900-
SOUTHWEST WISCONSIN

CITY           SKY/WX    TMP DP  RH WIND       PRES   REMARKS
LA CROSSE      LGT RAIN  74  71  91 SE5       29.93F
6HR MIN TEMP:  70; 6HR MAX TEMP:  74; 6HR PCP:  0.40;

SPARTA         LGT RAIN  68  68  99 NW3       29.97F
6HR MIN TEMP:  60; 6HR MAX TEMP:  70; 6HR PCP:  0.15;

VIROQUA        CLOUDY    70  70 100 S5        29.98F
6HR MIN TEMP:  67; 6HR MAX TEMP:  70; 6HR PCP:  0.28;

BOSCOBEL       LGT RAIN  72  70  93 CALM      29.98F FOG
6HR MIN TEMP:  71; 6HR MAX TEMP:  72; 6HR PCP:  0.31;

PRAIRIE DU CHI LGT RAIN  71  69  95 E5        29.96F
6HR MIN TEMP:  69; 6HR MAX TEMP:  72; 6HR PCP:  0.50;

PLATTEVILLE    CLOUDY    72  72 100 NW10G22   30.05R VSB 1/2
6HR MIN TEMP:  71; 6HR MAX TEMP:  75; 6HR PCP:  0.56;

$$

WIZ056-057-062-063-064-067-068-211900-
SOUTH CENTRAL WISCONSIN

CITY           SKY/WX    TMP DP  RH WIND       PRES   REMARKS
REEDSBURG      LGT RAIN  72  72 100 SW3       30.00R
6HR MIN TEMP:  65; 6HR MAX TEMP:  74; 6HR PCP:  0.05;

BARABOO/DELLS  LGT RAIN  73  70  90 SW5       30.00R
6HR MIN TEMP:  67; 6HR MAX TEMP:  77; 6HR PCP:  0.03;

LONE ROCK      LGT RAIN  73  70  90 CALM      30.01R FOG
6HR MIN TEMP:  68; 6HR MAX TEMP:  74; 6HR PCP:  0.17;

MINERAL POINT  HVY RAIN  73  73 100 NW6       30.03R
MADISON        CLOUDY    80  71  74 W3        29.99R HX  84
6HR MIN TEMP:  69; 6HR MAX TEMP:  80; 6HR PCP: TRACE;

MIDDLETON      CLOUDY    79  74  84 NW3       29.99R HX  82
6HR MIN TEMP:  66; 6HR MAX TEMP:  80;

WATERTOWN      CLOUDY    80  73  79 CALM      29.98R HX  83
6HR MIN TEMP:  68; 6HR MAX TEMP:  81;

MONROE         CLOUDY    79  72  78 S6        29.98S HX  82
JANESVILLE     PTSUNNY   86  73  66 S12G17    29.96F HX  93
$$

WIZ051-052-058>065-066-070>072-211900-
SOUTHEAST WISCONSIN

CITY           SKY/WX    TMP DP  RH WIND       PRES   REMARKS
MILWAUKEE      CLOUDY    80  72  76 SE10      29.97F HX  84
6HR MIN TEMP:  74; 6HR MAX TEMP:  83;

WAUKESHA       MOSUNNY   79  70  73 SE8       29.98F HX  81
MILWAUKEE/TIMM PTSUNNY   82  66  57 S6        29.99F HX  85
RACINE         CLOUDY    78  71  79 SE7       30.00F HX  80
6HR MIN TEMP:  71; 6HR MAX TEMP:  82;

KENOSHA        PTSUNNY   83  70  64 SE9       29.97F HX  87
6HR MIN TEMP:  71; 6HR MAX TEMP:  84;

FOND DU LAC    CLOUDY    81  67  62 S7        29.97F HX  83
6HR MIN TEMP:  69; 6HR MAX TEMP:  83;

SHEBOYGAN      CLOUDY    81  72  74 S9        29.98S HX  85
6HR MIN TEMP:  67; 6HR MAX TEMP:  84;

WEST BEND      PTSUNNY   81  66  61 SE3       29.98F HX  83
JUNEAU         CLOUDY    79  69  71 SE3       30.00S HX  81
6HR MIN TEMP:  68; 6HR MAX TEMP:  80;

$$

LSZ147-162-211900-
LAKE SUPERIOR

STATION/POSITION TIME  TEMP    WIND        PRES    WAVE
                       AIR SEA DIR/SP/G            HT/PER
                 (UTC) (F)     (DEG/KT/KT) (MB)    (FT/S)
W MID LAKE BUOY  1750   54 49   40/  8/  8 1014.7F   0
DEVILS ISLAND    1800   59      50/  9/ 10 1014.1F
SAXON HARBOR     1740   69      CALM  /  1 1013.9S
$$

LMZ867-665-643>646-211900-
LAKE MICHIGAN

STATION/POSITION TIME  TEMP    WIND        PRES    WAVE
                       AIR SEA DIR/SP/G            HT/PER
                 (UTC) (F)     (DEG/KT/KT) (MB)    (FT/S)
CHAMBERS ISLAND  1740   81     170/  3/  5 1013.9F
S GREEN BAY BUOY 1800   76 75  150/  4/  4 1014.3
N MID LA



USA.gov is the U.S. government's official web portal to all federal, state and local government web resources and services.